Weather History for KMTJ - March, 2012

Change the Weather History Date:

Friday, March 2, 2012

  Actual Average Record
Temperature  
Mean Temperature 25 °F 37 °F  
Max Temperature 33 °F 50 °F 72 °F (2009)
Min Temperature 16 °F 25 °F 1 °F (2002)
Degree Days  
Heating Degree Days 40 28  
Month to date heating degree days 74 56  
Since 1 July heating degree days 4651 4771  
Cooling Degree Days 0 0  
Month to date cooling degree days 0 0  
Year to date cooling degree days 0 0  
Moisture  
Dew Point 19 °F    
Average Humidity 75    
Maximum Humidity 96    
Minimum Humidity 54    
Precipitation  
Precipitation 0.05 in 0.04 in 0.07 in (2015)
Month to date precipitation 0.06 0.07  
Year to date precipitation 1.03 1.30  
Sea Level Pressure  
Sea Level Pressure 30.01 in    
Wind  
Wind Speed 11 mph (NW)    
Max Wind Speed 30 mph    
Max Gust Speed 37 mph    
Visibility 6 miles    
Events Fog , Snow    
T = Trace of Precipitation, MM = Missing Value Source: NWS Daily Summary

Daily Weather History Graph

Daily Weather History Graph

Search for Another Location

Airport or City:

Trip Planner

Search our weather history database for the weather conditions in past years. The results will help you decide how hot, cold, wet, or windy it might be!

Date:

Astronomy

Mar. 02, 2012 Rise Set
Actual Time 6:41 AM MST 6:06 PM MST
Civil Twilight 6:14 AM MST 6:32 PM MST
Nautical Twilight 5:44 AM MST 7:03 PM MST
Astronomical Twilight 5:13 AM MST 7:34 PM MST
Moon 12:24 PM MST (3/2) 2:30 AM MST (3/2)
Length of Visible Light 12h 17m
Length of Day
11h 24m
Waxing Gibbous, 67% of the Moon is Illuminated
Mar 2
Waxing Gibbous
Mar 8
Full
Mar 14
Last Quarter
Mar 22
New
Mar 30
First Quarter

Hourly Weather History & Observations

Time (MST) Temp. Windchill Dew Point Humidity Pressure Visibility Wind Dir Wind Speed Gust Speed Precip Events Conditions
12:53 AM 25.0 °F 16.3 °F 16.0 °F 69% 29.85 in 10.0 mi SE 8.1 mph - N/A   Overcast
1:53 AM 26.1 °F 18.4 °F 16.0 °F 66% 29.81 in 10.0 mi SE 6.9 mph - N/A   Overcast
2:53 AM 24.1 °F 18.2 °F 18.0 °F 77% 29.82 in 10.0 mi West 4.6 mph - N/A   Overcast
3:53 AM 25.0 °F - 19.0 °F 78% 29.82 in 10.0 mi Calm Calm - N/A   Overcast
4:53 AM 24.1 °F - 19.0 °F 81% 29.84 in 10.0 mi Calm Calm - N/A   Overcast
5:53 AM 24.1 °F 15.2 °F 21.0 °F 88% 29.87 in 6.0 mi NNW 8.1 mph - 0.00 in Snow Light Snow
6:25 AM 24.8 °F 20.5 °F 21.2 °F 86% 29.85 in 2.5 mi North 3.5 mph - 0.00 in Snow Light Snow
6:43 AM 24.8 °F 20.5 °F 21.2 °F 86% 29.86 in 1.5 mi North 3.5 mph - 0.00 in Snow Light Snow
6:51 AM 24.8 °F 20.5 °F 21.2 °F 86% 29.86 in 0.8 mi North 3.5 mph - 0.01 in Snow Light Snow
6:53 AM 24.1 °F 19.7 °F 21.9 °F 91% 29.90 in 0.8 mi North 3.5 mph - 0.01 in Snow Light Snow
7:12 AM 24.8 °F 20.5 °F 23.0 °F 93% 29.88 in 0.5 mi NNE 3.5 mph - 0.01 in Fog , Snow Snow
7:29 AM 24.8 °F - 23.0 °F 93% 29.89 in 0.5 mi Calm Calm - 0.02 in Fog , Snow Snow
7:50 AM 24.8 °F 13.4 °F 21.2 °F 86% 29.91 in 0.2 mi NW 12.7 mph - 0.03 in Fog , Snow Snow
7:53 AM 23.0 °F 12.4 °F 21.0 °F 92% 29.96 in 0.5 mi NW 10.4 mph - 0.03 in Fog , Snow Light Snow
8:01 AM 23.0 °F 12.4 °F 21.2 °F 93% 29.92 in 0.8 mi NW 10.4 mph - 0.00 in Snow Light Snow
8:14 AM 24.8 °F 12.9 °F 21.2 °F 86% 29.93 in 1.2 mi NW 13.8 mph - 0.00 in Snow Light Snow
8:21 AM 24.8 °F 14.6 °F 21.2 °F 86% 29.93 in 1.0 mi NW 10.4 mph - 0.00 in Snow Light Snow
8:30 AM 24.8 °F 12.4 °F 21.2 °F 86% 29.94 in 0.8 mi NW 15.0 mph - 0.00 in Snow Light Snow
8:53 AM 24.1 °F 12.5 °F 21.9 °F 91% 30.01 in 0.5 mi NW 12.7 mph - 0.00 in Fog , Snow Snow
9:02 AM 24.8 °F 14.0 °F 21.2 °F 86% 29.96 in 0.8 mi NW 11.5 mph - 0.00 in Snow Light Snow
9:04 AM 24.8 °F 13.4 °F 21.2 °F 86% 29.96 in 1.0 mi NW 12.7 mph - 0.00 in Snow Light Snow
9:12 AM 24.8 °F 11.9 °F 21.2 °F 86% 29.96 in 1.8 mi NW 16.1 mph - 0.00 in Snow Light Snow
9:22 AM 24.8 °F 11.9 °F 21.2 °F 86% 29.97 in 2.0 mi WNW 16.1 mph - 0.00 in Snow Light Snow
9:26 AM 24.8 °F 10.7 °F 21.2 °F 86% 29.97 in 2.5 mi NW 19.6 mph - 0.00 in Snow Light Snow
9:38 AM 24.8 °F 11.5 °F 21.2 °F 86% 29.98 in 1.5 mi WNW 17.3 mph 24.2 mph 0.00 in Snow Light Snow
9:49 AM 26.6 °F 13.8 °F 21.2 °F 80% 29.99 in 2.0 mi NW 17.3 mph - 0.00 in Snow Light Snow
9:53 AM 26.1 °F 13.6 °F 21.0 °F 81% 30.05 in 4.0 mi NW 16.1 mph - 0.00 in Snow Light Snow
10:03 AM 26.6 °F 15.2 °F 21.2 °F 80% 30.00 in 10.0 mi NW 13.8 mph - 0.00 in   Overcast
10:53 AM 28.0 °F 16.1 °F 19.0 °F 69% 30.06 in 10.0 mi NW 16.1 mph 28.8 mph 0.00 in   Overcast
11:53 AM 30.0 °F 19.1 °F 18.0 °F 61% 30.09 in 10.0 mi WNW 15.0 mph - N/A   Mostly Cloudy
12:53 PM 30.9 °F 18.4 °F 17.1 °F 57% 30.08 in 10.0 mi NW 20.7 mph 31.1 mph N/A   Partly Cloudy
1:53 PM 32.0 °F 18.9 °F 18.0 °F 56% 30.08 in 10.0 mi WNW 24.2 mph 35.7 mph 0.01 in   Clear
2:53 PM 30.0 °F 16.3 °F 18.0 °F 61% 30.12 in 10.0 mi NW 24.2 mph 31.1 mph N/A   Scattered Clouds
3:53 PM 28.9 °F 14.0 °F 21.0 °F 72% 30.15 in 10.0 mi NW 27.6 mph 33.4 mph N/A   Partly Cloudy
4:53 PM 28.0 °F 17.5 °F 18.0 °F 66% 30.18 in 10.0 mi West 12.7 mph - N/A   Mostly Cloudy
5:53 PM 27.0 °F 16.1 °F 14.0 °F 58% 30.20 in 10.0 mi WNW 12.7 mph - N/A   Clear
6:53 PM 25.0 °F - 16.0 °F 69% 30.22 in 10.0 mi Calm Calm - N/A   Clear
7:53 PM 21.0 °F 10.6 °F 12.0 °F 68% 30.27 in 10.0 mi SSE 9.2 mph - N/A   Clear
8:53 PM 19.0 °F 7.5 °F 10.9 °F 71% 30.28 in 10.0 mi SE 10.4 mph - N/A   Clear
9:53 PM 19.0 °F 6.8 °F 9.0 °F 65% 30.29 in 10.0 mi SE 11.5 mph - N/A   Clear
10:53 PM 17.1 °F 5.0 °F 7.0 °F 65% 30.31 in 10.0 mi SE 10.4 mph - N/A   Clear
11:53 PM 17.1 °F 6.6 °F 8.1 °F 68% 30.32 in 10.0 mi SSE 8.1 mph - N/A   Clear